Torna al catalogo

STARLINK-35372

AttivoComunicazioniVLEO
NORAD 66476·PAYLOAD·🇺🇸 United States

Lanciato Nov 15, 2025 da Cape Canaveral Space Force Station

Loading…

Prossimi Passaggi (prossime 24 ore)

TLE

AggiornatoSource: CelesTrak SupGP

Epoca: Sep 14, 2026, 21:20 UTC

1 66476C 25262W   26257.88937500 -.00022460  00000+0 -81381-3 0  2574
2 66476  43.0011 307.7329 0001482 273.7413   0.8994 15.27576877    19

Traccia STARLINK-35372 in tempo reale con AllMySat

Download on the App Store